St. Johns, AZ

3:06 PM MST on April 26, 2017 (GMT -0700)
Saint Johns Industrial

Weather History for KSJN - December, 2012

Change the Weather History Date:

Tuesday, December 18, 2012

  Actual Average (KLSB) Record (KLSB)
Temperature  
Mean Temperature 38 °F -  
Max Temperature 45 °F 60 °F 60 °F (2012)
Min Temperature 30 °F 24 °F 21 °F (2015)
Degree Days  
Heating Degree Days 28    
Moisture  
Dew Point 28 °F    
Average Humidity 73    
Maximum Humidity 89    
Minimum Humidity 41    
Precipitation  
Precipitation 0.24 in - - ()
Sea Level Pressure  
Sea Level Pressure 29.80 in    
Wind  
Wind Speed 7 mph (SW)    
Max Wind Speed 21 mph    
Max Gust Speed 31 mph    
Visibility 9 miles    
Events Rain , Snow    
Averages and records for this station are not official NWS values.
T = Trace of Precipitation, MM = Missing Value Source: NWS Daily Summary

Daily Weather History Graph

Daily Weather History Graph

Search for Another Location

Airport or City:

Trip Planner

Search our weather history database for the weather conditions in past years. The results will help you decide how hot, cold, wet, or windy it might be!

Date:

Astronomy

Dec. 18, 2012 Rise Set
Actual Time 7:19 AM MST 5:09 PM MST
Civil Twilight 6:51 AM MST 5:37 PM MST
Nautical Twilight 6:19 AM MST 6:09 PM MST
Astronomical Twilight 5:48 AM MST 6:40 PM MST
Moon 11:14 AM MST (12/18) 11:24 PM MST (12/18)
Length of Visible Light 10h 46m
Length of Day
9h 50m
Waxing Crescent, 35% of the Moon is Illuminated
Dec 18
Waxing Crescent
Dec 19
First Quarter
Dec 28
Full
Jan 4
Last Quarter
Jan 11
New

Hourly Weather History & Observations

Time (MST) Temp. Windchill Dew Point Humidity Pressure Visibility Wind Dir Wind Speed Gust Speed Precip Events Conditions
12:54 AM 30.9 °F - 26.1 °F 82% 29.92 in 10.0 mi Calm Calm - N/A   Clear
1:54 AM 27.0 °F 21.6 °F 21.9 °F 81% 29.92 in 10.0 mi South 4.6 mph - N/A   Clear
2:54 AM 24.1 °F 19.7 °F 19.9 °F 84% 29.92 in 10.0 mi South 3.5 mph - N/A   Clear
3:54 AM 23.0 °F 17.0 °F 19.4 °F 86% 29.94 in 10.0 mi NW 4.6 mph - N/A   Clear
4:54 AM 21.9 °F - 19.0 °F 89% 29.92 in 10.0 mi Calm Calm - N/A   Clear
5:54 AM 21.0 °F 16.2 °F 18.0 °F 88% 29.94 in 9.0 mi West 3.5 mph - N/A   Clear
6:54 AM 19.9 °F - 17.1 °F 89% 29.98 in 10.0 mi Calm Calm - N/A   Clear
7:54 AM 23.0 °F 15.8 °F 19.0 °F 85% 29.98 in 10.0 mi SSE 5.8 mph - N/A   Clear
8:54 AM 28.0 °F 24.2 °F 23.0 °F 81% 29.94 in 10.0 mi South 3.5 mph - N/A   Clear
9:54 AM 32.0 °F - 26.1 °F 79% 29.94 in 10.0 mi Calm Calm - N/A   Clear
10:54 AM 36.0 °F 33.3 °F 28.0 °F 73% 29.92 in 10.0 mi East 3.5 mph - N/A   Clear
11:54 AM 42.1 °F - 30.0 °F 62% 29.83 in 10.0 mi Calm Calm - N/A   Clear
12:54 PM 51.1 °F - 28.0 °F 41% 29.76 in 10.0 mi SW 15.0 mph - N/A   Clear
1:54 PM 51.1 °F - 30.0 °F 44% 29.73 in 10.0 mi WSW 15.0 mph - N/A   Partly Cloudy
2:54 PM 51.1 °F - 30.0 °F 44% 29.71 in 10.0 mi SW 17.3 mph 26.5 mph N/A   Partly Cloudy
3:54 PM 52.0 °F - 30.9 °F 45% 29.70 in 10.0 mi WSW 13.8 mph 26.5 mph N/A   Overcast
4:54 PM 48.0 °F - 33.1 °F 56% 29.73 in 10.0 mi SW 19.6 mph 28.8 mph N/A   Mostly Cloudy
5:54 PM 44.1 °F 38.6 °F 35.1 °F 71% 29.73 in 10.0 mi WSW 10.4 mph - N/A   Clear
6:54 PM 41.0 °F 37.1 °F 35.1 °F 79% 29.74 in 10.0 mi WSW 5.8 mph - N/A   Partly Cloudy
7:54 PM 43.0 °F 37.2 °F 34.0 °F 71% 29.71 in 10.0 mi SW 10.4 mph - N/A   Clear
8:54 PM 45.0 °F 37.9 °F 34.0 °F 65% 29.66 in 10.0 mi SW 16.1 mph 26.5 mph N/A   Clear
9:54 PM 44.1 °F 35.9 °F 34.0 °F 68% 29.65 in 10.0 mi SSW 19.6 mph 28.8 mph N/A   Partly Cloudy
10:54 PM 45.0 °F 37.6 °F 32.0 °F 60% 29.59 in 10.0 mi SSW 17.3 mph 31.1 mph N/A   Clear
11:54 PM 44.1 °F 36.5 °F 34.0 °F 68% 29.56 in 10.0 mi WSW 17.3 mph 23.0 mph 0.00 in Rain Light Rain